📊 Raw Sensor Data
Showing records 47251 to 47275 of 85,082 total
| ID | Distance (ft) | Battery V | Battery A | Int Temp (°F) | Int Humid (%) | Ext Temp (°F) | Solar V | RSSI | SNR | Time Stamp |
|---|---|---|---|---|---|---|---|---|---|---|
| 37844 | -- | 3.79 | -5 | 52 | 43 | 53 | 0.00 | -67 | 8 | 04/15/2025 01:00 AM |
| 37843 | -- | 3.84 | -5 | 53 | 43 | 54 | 0.00 | -68 | 8 | 04/15/2025 12:45 AM |
| 37842 | -- | 3.79 | -5 | 54 | 43 | 54 | 0.00 | -68 | 8 | 04/15/2025 12:30 AM |
| 37841 | 15.6 | 3.79 | -5 | 55 | 42 | 55 | 0.10 | -69 | 8 | 04/15/2025 12:15 AM |
| 37840 | -- | 3.84 | -5 | 56 | 42 | 56 | 0.10 | -68 | 8 | 04/15/2025 12:00 AM |
| 37839 | -- | 3.79 | -5 | 57 | 42 | 57 | 0.10 | -68 | 7 | 04/14/2025 11:30 PM |
| 37838 | -- | 3.79 | -5 | 57 | 43 | 58 | 0.00 | -68 | 7 | 04/14/2025 11:16 PM |
| 37837 | -- | 3.79 | -5 | 58 | 43 | 58 | 0.00 | -69 | 8 | 04/14/2025 11:01 PM |
| 37836 | -- | 3.80 | -5 | 58 | 43 | 59 | 0.10 | -70 | 8 | 04/14/2025 10:45 PM |
| 37835 | -- | 3.80 | -5 | 59 | 43 | 60 | 0.00 | -69 | 8 | 04/14/2025 10:30 PM |
| 37834 | -- | 3.80 | -5 | 59 | 43 | 60 | 0.00 | -70 | 7 | 04/14/2025 10:15 PM |
| 37833 | -- | 3.79 | -5 | 60 | 43 | 61 | 0.10 | -69 | 8 | 04/14/2025 10:00 PM |
| 37832 | -- | 3.79 | -5 | 61 | 43 | 62 | 0.00 | -68 | 8 | 04/14/2025 09:45 PM |
| 37831 | -- | 3.79 | -5 | 61 | 44 | 62 | 0.00 | -69 | 7 | 04/14/2025 09:30 PM |
| 37830 | -- | 3.80 | -5 | 61 | 45 | 63 | 0.00 | -70 | 8 | 04/14/2025 09:15 PM |
| 37829 | -- | 3.80 | -5 | 62 | 45 | 63 | 0.00 | -71 | 8 | 04/14/2025 09:00 PM |
| 37828 | -- | 3.80 | -5 | 63 | 46 | 63 | 0.00 | -68 | 8 | 04/14/2025 08:45 PM |
| 37827 | -- | 3.80 | -5 | 64 | 47 | 64 | 0.00 | -70 | 8 | 04/14/2025 08:30 PM |
| 37826 | -- | 3.85 | -5 | 66 | 48 | 65 | 0.10 | -69 | 8 | 04/14/2025 08:15 PM |
| 37825 | -- | 3.80 | -5 | 68 | 48 | 67 | 1.00 | -68 | 8 | 04/14/2025 08:00 PM |
| 37824 | -- | 3.79 | -10 | 71 | 49 | 69 | 2.20 | -69 | 6 | 04/14/2025 07:45 PM |
| 37823 | -- | 3.86 | 0 | 75 | 48 | 72 | 4.50 | -68 | 8 | 04/14/2025 07:30 PM |
| 37822 | -- | 3.84 | -8 | 79 | 49 | 76 | 4.50 | -70 | 8 | 04/14/2025 07:00 PM |
| 37821 | -- | 3.90 | 37 | 82 | 50 | 78 | 4.50 | -69 | 7 | 04/14/2025 06:45 PM |
| 37820 | -- | 4.07 | 34 | 84 | 52 | 78 | 4.50 | -69 | 7 | 04/14/2025 06:31 PM |